• In Kazakhstan
  • List of Countries
  • For 7 days
  • Water Temperature
  • Satellite Maps
  • Weather Map
  • News
  • Weather Widgets
  • user-avatar
    Login

    Hourly Weather Ali Bayramli

    Today, 27 June, Thursday

    Time Temperature Precipitation Wind Pressure Humidity
    00:00 +32°C° 0 mm 7 mps 757 mmHg 37%
    01:00 +30°C° 0 mm 6 mps 757 mmHg 41%
    02:00 +29°C° 0 mm 4 mps 757 mmHg 45%
    03:00 +28°C° 0 mm 3 mps 757 mmHg 50%
    04:00 +28°C° 0 mm 3 mps 757 mmHg 50%
    05:00 +29°C° 0 mm 3 mps 757 mmHg 50%
    06:00 +29°C° 0 mm 3 mps 757 mmHg 50%
    07:00 +30°C° 0 mm 3 mps 757 mmHg 45%
    08:00 +33°C° 0 mm 3 mps 757 mmHg 41%
    09:00 +34°C° 0 mm 4 mps 757 mmHg 36%
    10:00 +36°C° 0 mm 4 mps 756 mmHg 32%
    11:00 +37°C° 0 mm 5 mps 756 mmHg 28%
    12:00 +39°C° 0 mm 6 mps 756 mmHg 24%
    13:00 +39°C° 0 mm 6 mps 755 mmHg 24%
    14:00 +39°C° 0 mm 7 mps 755 mmHg 24%
    15:00 +39°C° 0 mm 7 mps 754 mmHg 25%
    16:00 +38°C° 0 mm 7 mps 754 mmHg 28%
    17:00 +35°C° 0 mm 7 mps 754 mmHg 32%
    18:00 +34°C° 0 mm 8 mps 754 mmHg 36%
    19:00 +33°C° 0 mm 7 mps 754 mmHg 38%
    20:00 +32°C° 0 mm 6 mps 754 mmHg 40%
    21:00 +30°C° 0 mm 5 mps 754 mmHg 42%
    22:00 +29°C° 0 mm 4 mps 754 mmHg 43%
    23:00 +29°C° 0 mm 3 mps 754 mmHg 44%

    Tomorrow, 28 June, Friday

    Time Temperature Precipitation Wind Pressure Humidity
    00:00 +28°C° 0 mm 3 mps 754 mmHg 46%
    01:00 +28°C° 0 mm 2 mps 753 mmHg 47%
    02:00 +27°C° 0 mm 2 mps 753 mmHg 48%
    03:00 +27°C° 0 mm 2 mps 753 mmHg 50%
    04:00 +27°C° 0 mm 2 mps 753 mmHg 48%
    05:00 +28°C° 0 mm 2 mps 752 mmHg 47%
    06:00 +28°C° 0 mm 2 mps 752 mmHg 46%
    07:00 +30°C° 0 mm 1 mps 752 mmHg 41%
    08:00 +31°C° 0 mm 1 mps 752 mmHg 36%
    09:00 +33°C° 0 mm 1 mps 752 mmHg 31%
    10:00 +35°C° 0 mm 2 mps 751 mmHg 28%
    11:00 +36°C° 0 mm 2 mps 751 mmHg 26%
    12:00 +38°C° 0 mm 2 mps 750 mmHg 23%
    13:00 +38°C° 0 mm 3 mps 750 mmHg 23%
    14:00 +38°C° 0 mm 4 mps 749 mmHg 22%
    15:00 +40°C° 0 mm 6 mps 749 mmHg 22%
    16:00 +39°C° 0 mm 6 mps 748 mmHg 24%
    17:00 +36°C° 0 mm 6 mps 748 mmHg 26%
    18:00 +35°C° 0 mm 6 mps 748 mmHg 28%
    19:00 +34°C° 0 mm 5 mps 748 mmHg 32%
    20:00 +32°C° 0 mm 4 mps 748 mmHg 37%
    21:00 +30°C° 0 mm 2 mps 748 mmHg 41%
    22:00 +30°C° 0 mm 2 mps 748 mmHg 44%
    23:00 +29°C° 0 mm 2 mps 748 mmHg 46%

    Day after tomorrow, 29 June, Saturday

    Time Temperature Precipitation Wind Pressure Humidity
    00:00 +29°C° 0 mm 2 mps 748 mmHg 48%
    01:00 +29°C° 0 mm 1 mps 748 mmHg 50%
    02:00 +28°C° 0 mm 1 mps 747 mmHg 51%
    03:00 +26°C° 0 mm 0 mps 747 mmHg 52%
    04:00 +29°C° 0 mm 1 mps 747 mmHg 49%
    05:00 +29°C° 0 mm 1 mps 747 mmHg 45%
    06:00 +30°C° 0 mm 1 mps 748 mmHg 42%
    07:00 +31°C° 0 mm 2 mps 748 mmHg 38%
    08:00 +34°C° 0 mm 2 mps 748 mmHg 34%
    09:00 +35°C° 0 mm 3 mps 748 mmHg 30%
    10:00 +36°C° 0 mm 3 mps 748 mmHg 29%
    11:00 +37°C° 0 mm 3 mps 748 mmHg 28%
    12:00 +38°C° 0 mm 4 mps 747 mmHg 27%
    13:00 +38°C° 0 mm 4 mps 747 mmHg 29%
    14:00 +40°C° 0 mm 5 mps 746 mmHg 30%
    15:00 +40°C° 0 mm 6 mps 746 mmHg 32%
    16:00 +38°C° 0 mm 7 mps 746 mmHg 36%
    17:00 +36°C° 0 mm 7 mps 746 mmHg 40%
    18:00 +35°C° 0 mm 7 mps 745 mmHg 43%
    19:00 +34°C° 0 mm 6 mps 746 mmHg 47%
    20:00 +33°C° 0 mm 5 mps 747 mmHg 51%
    21:00 +32°C° 0 mm 4 mps 748 mmHg 55%
    22:00 +30°C° 0 mm 4 mps 748 mmHg 56%
    23:00 +29°C° 0 mm 5 mps 748 mmHg 57%

    30 June, Sunday

    Time Temperature Precipitation Wind Pressure Humidity
    00:00 +28°C° 0 mm 6 mps 748 mmHg 57%
    01:00 +28°C° 0 mm 5 mps 749 mmHg 60%
    02:00 +27°C° 0 mm 4 mps 749 mmHg 62%
    03:00 +27°C° 0 mm 2 mps 749 mmHg 65%
    04:00 +27°C° 0 mm 2 mps 750 mmHg 64%
    05:00 +27°C° 0 mm 3 mps 750 mmHg 63%
    06:00 +27°C° 0 mm 3 mps 750 mmHg 61%
    07:00 +28°C° 0 mm 3 mps 751 mmHg 57%
    08:00 +28°C° 0 mm 4 mps 751 mmHg 52%
    09:00 +29°C° 0 mm 4 mps 752 mmHg 48%
    10:00 +30°C° 0 mm 5 mps 752 mmHg 45%
    11:00 +30°C° 0 mm 6 mps 752 mmHg 42%
    12:00 +32°C° 0 mm 7 mps 752 mmHg 38%
    13:00 +32°C° 0 mm 9 mps 752 mmHg 37%
    14:00 +32°C° 0 mm 10 mps 752 mmHg 36%
    15:00 +32°C° 0 mm 11 mps 752 mmHg 35%
    16:00 +31°C° 0 mm 11 mps 752 mmHg 38%
    17:00 +29°C° 0 mm 11 mps 752 mmHg 42%
    18:00 +27°C° 0 mm 11 mps 752 mmHg 45%
    19:00 +27°C° 0 mm 10 mps 752 mmHg 46%
    20:00 +26°C° 0 mm 10 mps 753 mmHg 47%
    21:00 +26°C° 0 mm 9 mps 753 mmHg 47%
    22:00 +26°C° 0 mm 8 mps 753 mmHg 47%
    23:00 +26°C° 0 mm 8 mps 753 mmHg 47%

    1 July, Monday

    Time Temperature Precipitation Wind Pressure Humidity
    00:00 +26°C° 0 mm 8 mps 753 mmHg 47%
    01:00 +24°C° 0 mm 6 mps 754 mmHg 51%
    02:00 +23°C° 0 mm 5 mps 754 mmHg 55%
    03:00 +22°C° 0 mm 4 mps 754 mmHg 59%
    04:00 +22°C° 0.1 mm 4 mps 754 mmHg 62%
    05:00 +22°C° 0.1 mm 3 mps 754 mmHg 65%
    06:00 +21°C° 0.1 mm 3 mps 755 mmHg 68%
    07:00 +21°C° 0 mm 3 mps 755 mmHg 69%
    08:00 +21°C° 0 mm 4 mps 755 mmHg 70%
    09:00 +21°C° 0 mm 4 mps 756 mmHg 71%
    10:00 +21°C° 0.2 mm 4 mps 756 mmHg 72%
    11:00 +20°C° 0.2 mm 4 mps 756 mmHg 74%
    12:00 +20°C° 0.2 mm 5 mps 757 mmHg 75%
    13:00 +20°C° 0.2 mm 4 mps 757 mmHg 76%
    14:00 +20°C° 0.2 mm 4 mps 757 mmHg 77%
    15:00 +20°C° 0.2 mm 3 mps 757 mmHg 77%
    16:00 +19°C° 0.7 mm 3 mps 757 mmHg 77%
    17:00 +19°C° 0.7 mm 3 mps 757 mmHg 76%
    18:00 +19°C° 0.7 mm 3 mps 757 mmHg 75%
    19:00 +19°C° 0.1 mm 3 mps 758 mmHg 73%
    20:00 +19°C° 0.1 mm 2 mps 758 mmHg 70%
    21:00 +19°C° 0.1 mm 2 mps 759 mmHg 68%
    22:00 +19°C° 0 mm 2 mps 759 mmHg 73%
    23:00 +18°C° 0 mm 3 mps 759 mmHg 78%

    2 July, Tuesday

    Time Temperature Precipitation Wind Pressure Humidity
    00:00 +18°C° 0 mm 3 mps 759 mmHg 84%
    01:00 +18°C° 0 mm 3 mps 759 mmHg 84%
    02:00 +18°C° 0 mm 2 mps 759 mmHg 85%
    03:00 +17°C° 0 mm 2 mps 759 mmHg 86%
    04:00 +18°C° 0 mm 2 mps 759 mmHg 83%
    05:00 +18°C° 0 mm 3 mps 760 mmHg 80%
    06:00 +19°C° 0 mm 3 mps 760 mmHg 77%
    07:00 +21°C° 0 mm 4 mps 760 mmHg 67%
    08:00 +22°C° 0 mm 4 mps 760 mmHg 57%
    09:00 +25°C° 0 mm 5 mps 760 mmHg 47%
    10:00 +27°C° 0 mm 6 mps 760 mmHg 42%
    11:00 +28°C° 0 mm 6 mps 759 mmHg 37%
    12:00 +30°C° 0 mm 7 mps 759 mmHg 32%
    13:00 +32°C° 0 mm 6 mps 759 mmHg 29%
    14:00 +32°C° 0 mm 4 mps 759 mmHg 27%
    15:00 +33°C° 0 mm 3 mps 758 mmHg 25%
    16:00 +31°C° 0 mm 3 mps 758 mmHg 26%
    17:00 +32°C° 0 mm 4 mps 758 mmHg 27%
    18:00 +32°C° 0 mm 4 mps 759 mmHg 29%
    19:00 +29°C° 0 mm 4 mps 759 mmHg 37%
    20:00 +27°C° 0 mm 5 mps 759 mmHg 44%
    21:00 +26°C° 0 mm 5 mps 759 mmHg 52%
    22:00 +25°C° 0 mm 4 mps 759 mmHg 52%
    23:00 +25°C° 0 mm 4 mps 759 mmHg 52%
    Show more